Location: Canyam�s
(41.5996°N, 2.4450°E)
Time: 23:29:56
(UTC+00:00)

Daily predictions for brighter satellites

Satellite Brightness Start Highest point End
(mag) Time Altitude Azimuth Time Altitude Azimuth Time Altitude Azimuth
CZ-2C R/B 2.8 19:46:52 10° NNE 19:52:29 69° ESE 19:58:02 10° S
Milstar 3 Cent rocket 4.4 19:48:17 10° SSW 19:53:43 22° SE 20:02:15 10° E
STARLINK-1103 3.8 19:50:24 10° NW 19:54:32 70° NE 19:58:39 10° ESE
FREGAT/IRIS 4.1 19:53:21 10° SSW 19:55:46 31° W 19:58:12 10° NNW
H-2A R/B 3.4 19:52:05 10° SSW 19:56:52 40° W 20:01:48 10° NNW
STARLINK-1101 3.7 19:55:22 10° NW 19:59:32 77° NE 20:03:39 10° ESE
Cosmos 1943 Rocket 2.6 19:54:42 10° S 19:59:49 40° ESE 20:05:01 10° NE
USA 267 4.4 19:54:21 10° SSE 20:00:15 35° SW 20:06:11 10° WNW
STARLINK-1102 3.6 20:00:21 10° NW 20:04:30 83° NE 20:08:38 10° SE
NOSS 2-2 (C) 3.5 20:02:41 10° SW 20:06:12 69° NW 20:10:01 10° NNE
STARLINK-1111 3.6 20:05:21 10° NW 20:09:30 90° W 20:13:26 11° SE
ATLAS 2AS CENTAUR R/B 3.6 20:05:09 10° S 20:12:04 35° ESE 20:19:03 10° NE
SL-4 R/B 2.4 20:08:10 10° SW 20:12:47 89° NW 20:17:39 10° NE
STARLINK-1073 3.6 20:10:19 10° NW 20:14:28 83° SW 20:18:12 13° SE
NOSS 3-2 (A) 4.4 20:07:30 10° NNW 20:14:58 59° NE 20:22:52 12° SE
deb Kosmos-1763 4.1 20:14:46 10° NNW 20:18:22 74° WSW 20:21:57 10° SSE
USA 186 4.4 20:16:57 10° SW 20:18:30 14° W 20:20:07 10° WNW
STARLINK-1121 3.7 20:15:17 10° NW 20:19:26 76° SW 20:22:58 14° SE
Lacrosse 5 4.0 20:16:02 10° WNW 20:19:30 19° WSW 20:22:56 10° SSW
STARLINK-29 2.8 20:18:48 10° SW 20:22:01 84° SE 20:25:15 10° NE
Cosmos 1437 Rocket 3.5 20:18:29 10° SSW 20:22:12 54° WNW 20:25:59 10° N
ERS-1 Rocket 4.5 20:19:08 10° ESE 20:22:52 22° ENE 20:26:42 10° NNE
STARLINK-1106 3.7 20:20:17 10° WNW 20:24:25 69° SW 20:27:45 15° SE
Okean 1 Rocket 3.1 20:22:26 10° N 20:26:51 63° E 20:30:51 12° SSE
Cosmos 1900 4.4 20:23:26 10° NNW 20:28:30 78° ENE 20:32:47 15° SE
STARLINK-1112 3.8 20:25:17 10° WNW 20:29:23 62° SW 20:32:33 16° SE
USA 238 DEB 4.0 20:22:51 10° NNW 20:30:04 67° NE 20:36:27 15° SE
USA 238 4.0 20:22:57 10° NNW 20:30:10 67° NE 20:36:34 15° SE
Cosmos 2082 Rocket 3.7 20:26:44 10° NW 20:31:47 33° WSW 20:36:46 10° SSW
ATLAS CENTAUR R/B 2.4 20:28:40 10° S 20:32:25 27° ESE 20:35:59 10° ENE
IGS 5A 4.2 20:29:40 15° SE 20:32:38 38° ENE 20:36:30 10° N
MetOp-B 4.2 20:28:19 12° SSE 20:33:13 65° ENE 20:38:31 10° N
Okean 2 4.1 20:30:51 14° SSE 20:33:52 35° E 20:37:41 10° NNE
STARLINK-1128 3.9 20:30:16 10° WNW 20:34:20 57° SW 20:37:19 17° SSE
Cosmos 2369 Rocket 2.3 20:29:35 10° S 20:35:06 57° ESE 20:40:38 10° NNE
STARLINK-1320 3.7 20:35:03 10° SSW 20:37:46 28° SE 20:40:29 10° ENE
STARLINK-1322 3.7 20:35:23 10° SSW 20:38:06 28° SE 20:40:51 10° ENE
STARLINK-1324 3.7 20:35:42 10° SSW 20:38:25 28° SE 20:41:10 10° ENE
STARLINK-1294 3.7 20:36:01 10° SSW 20:38:44 28° SE 20:41:28 10° ENE
STARLINK-1261 3.7 20:36:22 10° SSW 20:39:06 29° SE 20:41:51 10° ENE
STARLINK-1113 4.1 20:35:17 10° WNW 20:39:19 51° SW 20:42:07 18° SSE
STARLINK-1325 3.7 20:36:42 10° SSW 20:39:27 29° SE 20:42:13 10° ENE
STARLINK-1333 3.6 20:37:05 10° SSW 20:39:49 29° SE 20:42:36 10° ENE
STARLINK-1334 3.6 20:37:21 10° SSW 20:40:07 29° SE 20:42:52 10° ENE
STARLINK-1326 3.6 20:37:40 10° SSW 20:40:26 30° SE 20:43:12 10° ENE
STARLINK-1323 3.6 20:38:02 10° SSW 20:40:48 30° SE 20:43:35 10° ENE
STARLINK-1349 3.6 20:38:19 10° SSW 20:41:06 30° SE 20:43:53 10° ENE
STARLINK-1336 3.6 20:38:39 10° SSW 20:41:26 30° SE 20:44:14 10° ENE
STARLINK-1331 3.6 20:39:01 10° SSW 20:41:49 31° SE 20:44:36 10° ENE
STARLINK-1344 3.6 20:39:19 10° SSW 20:42:06 31° SE 20:44:55 10° ENE
STARLINK-1343 3.6 20:39:41 10° SSW 20:42:29 31° SE 20:45:18 10° ENE
STARLINK-1346 3.6 20:39:58 10° SSW 20:42:47 31° SE 20:45:37 10° ENE
STARLINK-1328 3.5 20:40:23 10° SSW 20:43:12 32° SE 20:46:01 10° ENE
STARLINK-1354 3.5 20:40:41 10° SSW 20:43:29 32° SE 20:46:19 10° ENE
STARLINK-1347 3.5 20:40:57 10° SSW 20:43:46 32° SE 20:46:36 10° ENE
Cosmos 1766 3.6 20:39:58 10° N 20:43:53 50° E 20:46:21 21° SSE
STARLINK-1357 3.5 20:41:22 10° SSW 20:44:12 32° SE 20:47:02 10° ENE
STARLINK-1119 4.2 20:40:17 10° WNW 20:44:16 46° SW 20:46:53 19° SSE
STARLINK-1335 3.5 20:41:39 10° SSW 20:44:29 33° SE 20:47:20 10° ENE
STARLINK-1327 3.5 20:42:00 10° SSW 20:44:50 33° SE 20:47:41 10° ENE
STARLINK-1340 3.5 20:42:18 10° SSW 20:45:08 33° SE 20:48:00 10° ENE
STARLINK-1234 4.4 20:41:47 10° NW 20:45:09 36° NNE 20:47:47 14° E
STARLINK-1356 3.5 20:42:40 10° SSW 20:45:31 33° SE 20:48:22 10° ENE
STARLINK-1345 3.4 20:42:58 10° SSW 20:45:50 34° SE 20:48:41 10° ENE
STARLINK-1355 3.4 20:43:19 10° SSW 20:46:11 34° SE 20:49:03 10° ENE
STARLINK-1321 3.4 20:43:40 10° SSW 20:46:31 34° SE 20:49:24 10° ENE
STARLINK-1358 3.4 20:44:02 10° SSW 20:46:54 35° SE 20:49:47 10° ENE
STARLINK-1332 3.4 20:44:19 10° SSW 20:47:11 35° SE 20:50:04 10° ENE
STARLINK-1348 3.4 20:44:39 10° SSW 20:47:31 35° SE 20:50:25 10° ENE
STARLINK-1330 3.4 20:44:59 10° SSW 20:47:52 35° SE 20:50:45 10° ENE
STARLINK-1363 3.4 20:45:18 10° SSW 20:48:11 36° SE 20:51:05 10° ENE
Nadezhda 4 Rocket 4.0 20:42:08 10° S 20:48:16 85° W 20:54:25 10° N
STARLINK-1337 3.4 20:45:40 10° SSW 20:48:33 36° SE 20:51:28 10° ENE
STARLINK-1338 4.2 20:45:10 10° SSW 20:48:42 31° SE 20:52:15 10° ENE
STARLINK-1342 3.3 20:45:59 10° SSW 20:48:53 36° SE 20:51:47 10° ENE
STARLINK-1364 3.3 20:46:19 10° SSW 20:49:13 37° SE 20:52:08 10° ENE
STARLINK-1114 4.4 20:45:19 10° WNW 20:49:14 42° SW 20:51:41 20° SSE
STARLINK-1376 3.3 20:46:39 10° SSW 20:49:33 37° SE 20:52:28 10° ENE
STARLINK-1360 3.3 20:46:59 10° SSW 20:49:54 37° SE 20:52:48 10° ENE
STARLINK-1361 3.3 20:47:20 10° SSW 20:50:14 37° SE 20:53:09 10° ENE
STARLINK-1228 4.3 20:47:00 10° NW 20:50:30 40° NNE 20:53:01 17° E
STARLINK-1367 3.3 20:47:36 10° SSW 20:50:30 38° SE 20:53:26 10° ENE
H-2A ROCKET BODY 4.4 20:45:02 10° SSW 20:50:40 29° SE 21:09:27 10° E
STARLINK-1366 3.3 20:47:57 10° SSW 20:50:53 38° SE 20:53:48 10° ENE
Resurs 01 Rocket 2.5 20:48:12 10° S 20:52:29 47° W 20:56:48 10° NNW
USA 245 2.2 20:52:38 35° SE 20:53:31 65° ENE 20:55:52 10° N
STARLINK-1371 4.0 20:53:25 10° SSW 20:57:05 37° SE 21:00:46 10° ENE
STARLINK-52 3.9 20:54:16 10° WSW 20:57:24 50° NNW 21:00:32 10° NE
SPOT 5 3.7 20:57:53 21° SE 21:01:01 43° ENE 21:06:05 10° N
STARLINK-1341 3.9 20:57:36 10° SSW 21:01:21 40° SE 21:05:07 10° ENE
Spot 2 Rocket 3.5 20:57:35 18° SSE 21:01:22 87° W 21:06:26 10° NNW
Cosmos 1378 3.7 20:58:07 10° SSW 21:01:46 57° W 21:05:26 10° N
BREEZE-M DEB 3.1 21:01:57 10° WSW 21:04:11 54° NNW 21:08:53 10° ENE
CENTAUR R/B 3.4 20:56:41 10° NNW 21:04:47 67° NE 21:11:10 21° SE
Terra 2.9 21:02:43 21° ESE 21:05:01 32° ENE 21:09:13 10° N
STARLINK-1374 3.8 21:01:49 10° SSW 21:05:35 44° SE 21:09:24 10° ENE
STARLINK-1339 3.7 21:06:02 10° SSW 21:09:53 48° SE 21:13:45 10° ENE
ATLAS 3B R/B 3.7 21:06:41 10° NNW 21:12:56 37° NE 21:18:07 15° ESE
Cosmos 1726 4.4 21:12:27 10° NE 21:14:10 13° ENE 21:14:42 12° E
STARLINK-1377 3.6 21:10:18 10° SSW 21:14:10 52° SE 21:18:04 10° ENE
SAR-Lupe-2 4.0 21:11:46 10° N 21:15:19 60° WNW 21:18:12 15° SSW
Cosmos 1805 3.9 21:12:07 10° NNW 21:15:57 53° W 21:18:19 21° SSW
APEX 4.4 21:11:03 10° SSW 21:17:33 80° WNW 21:22:51 10° NNE
STARLINK-1353 3.5 21:14:33 10° SW 21:18:28 57° SE 21:22:23 10° ENE
Cosmos 1470 3.4 21:18:35 10° N 21:22:15 40° ENE 21:23:07 35° ESE
STARLINK-1375 3.4 21:18:51 10° SW 21:22:47 62° SE 21:26:45 10° ENE
FALCON 9 DEB 4.0 21:20:36 10° WSW 21:23:56 50° NNW 21:27:18 10° NE
BREEZE-M DEB (TANK) 3.7 21:12:31 10° SW 21:23:57 43° SSE 21:27:53 10° ENE
Cosmos 1733 3.5 21:22:28 10° NNW 21:26:13 60° W 21:27:51 30° SSW
Cosmos 1174 3.2 21:26:27 55° SSE 21:26:55 65° ESE 21:30:29 10° NE
Meteor 1-22 Rocket 4.4 21:21:12 10° NNW 21:26:56 69° W 21:30:28 23° S
STARLINK-1350 3.4 21:23:07 10° SW 21:27:05 68° SE 21:31:05 10° ENE
NOSS 3-2 (C) 4.1 21:20:30 10° NW 21:28:13 86° WSW 21:33:29 27° SSE
COSMOS 2455 2.9 21:23:34 16° S 21:28:15 59° ESE 21:34:10 10° NE
STARLINK-1235 3.1 21:25:54 10° NW 21:29:22 78° NE 21:30:07 52° ESE
Cosmos 1842 3.6 21:28:37 23° SSW 21:30:54 61° W 21:34:45 10° N
ATLAS 3B CENTAUR R/B 4.0 21:16:34 10° WSW 21:31:17 38° SSW 21:35:21 26° SSE
STARLINK-1352 3.3 21:27:26 10° SW 21:31:26 74° SE 21:35:25 10° NE
Cosmos 1340 Rocket 4.4 21:28:18 10° NNE 21:31:29 22° ENE 21:32:10 21° E
Cosmos 1025 Rocket 3.4 21:30:38 38° SE 21:31:34 45° E 21:35:41 10° NNE
SL-27 R/B 3.2 21:29:08 10° NNW 21:32:32 45° WSW 21:33:33 34° SSW
SPOT 1/Viking Rocket 3.9 21:30:30 24° S 21:33:33 61° W 21:38:39 10° NNW
Cosmos 1975 Rocket 3.7 21:30:51 16° SSW 21:34:15 53° W 21:38:34 10° N
NOSS 3-4 (A) 3.4 21:28:47 10° SW 21:34:42 82° NW 21:40:59 10° NE
NOSS 3-4 (C) 3.4 21:28:53 10° SW 21:34:48 83° NW 21:41:06 10° NE
STARLINK-1368 3.4 21:31:52 10° SW 21:35:52 81° SE 21:39:53 10° NE
COSMOS 2487 3.7 21:32:54 10° N 21:35:55 28° ENE 21:36:14 27° ENE
STARLINK-1212 2.8 21:34:29 10° NW 21:37:38 75° NE 21:37:48 72° ENE
STARLINK-1105 2.8 21:35:10 10° NW 21:38:20 77° NE 21:38:31 73° ENE
STARLINK-1247 2.8 21:36:16 10° NW 21:39:28 79° NE 21:39:38 75° E
Cosmos 1486 Rocket 4.1 21:34:13 10° NNW 21:39:28 70° WSW 21:41:50 33° S
STARLINK-1227 2.8 21:36:53 10° NW 21:40:05 80° NE 21:40:12 77° ENE
STARLINK-1369 3.4 21:36:15 10° SW 21:40:16 87° SE 21:44:18 10° NE
STARLINK-1226 2.8 21:38:03 10° NW 21:41:14 82° NE 21:41:19 81° ENE
Cosmos 1354 Rocket 4.2 21:36:20 10° NNW 21:41:36 61° ENE 21:43:37 37° SE
RESURS DK-1 3.3 21:42:39 31° E 21:42:39 31° E 21:45:48 10° NE
STARLINK-1215 2.8 21:39:07 10° NW 21:42:19 84° NNE 21:42:23 83° ENE
ATLAS 5 CENTAUR R/B 2.1 21:34:34 10° SSW 21:42:20 63° SE 21:45:07 10° NE
Cosmos 1943 Rocket 4.0 21:38:49 10° WSW 21:43:39 30° NW 21:48:33 10° N
Cosmos 1271 Rocket 2.6 21:42:55 47° S 21:43:58 90° E 21:47:57 10° N
MTI 4.1 21:40:58 10° NNE 21:43:38 51° ENE 21:43:38 51° ENE
STARLINK-1217 2.8 21:41:23 10° NW 21:44:35 88° NNW 21:44:35 88° NNW
STARLINK-1372 3.5 21:40:37 10° SW 21:44:38 86° NW 21:48:39 10° NE
STARLINK-1229 2.8 21:42:30 10° NW 21:45:38 85° WNW 21:45:38 85° WNW
Cosmos 1992 Rocket 4.1 21:42:02 18° SSW 21:45:55 78° WNW 21:51:10 10° NNE
STARLINK-1270 2.9 21:43:34 10° NW 21:46:39 82° WNW 21:46:39 82° WNW
Cosmos 1953 3.2 21:43:22 10° N 21:47:01 34° ENE 21:47:21 34° E
STARLINK-1378 3.5 21:45:03 10° SW 21:49:04 80° NW 21:53:06 10° NE
STARLINK-1189 2.9 21:46:00 10° NW 21:49:02 76° W 21:49:02 76° W
STARLINK-1188 3.0 21:47:13 10° NW 21:50:12 73° W 21:50:12 73° W
SL-4 R/B 4.3 21:48:47 10° W 21:53:02 31° NNW 21:57:22 10° NE
STARLINK-1191 3.1 21:49:50 10° NW 21:52:41 65° W 21:52:41 65° W
STARLINK-1379 3.7 21:49:32 10° WSW 21:53:33 74° NW 21:57:34 10° NE
Cosmos 1242 Rocket 3.7 21:52:26 25° SW 21:54:04 40° WNW 21:57:34 10° N
STARLINK-1221 3.2 21:51:03 10° NW 21:53:50 61° W 21:53:50 61° W
STARLINK-1222 3.3 21:52:17 10° NW 21:55:02 59° W 21:55:02 59° W
Cosmos 1707 2.6 21:55:21 65° S 21:55:53 87° E 21:59:47 10° N
STARLINK-1214 3.3 21:53:30 10° WNW 21:56:14 57° W 21:56:14 57° W
Cosmos 1833 4.2 21:51:10 10° NNW 21:56:49 79° WSW 21:58:53 41° S
STARLINK-1329 3.8 21:53:16 10° WSW 21:57:17 69° NW 22:01:19 10° NE
ERS-1 Rocket 3.7 21:59:08 28° SSW 22:01:20 45° W 22:06:11 10° NNW
STARLINK-1362 3.9 21:57:47 10° WSW 22:01:48 64° NW 22:05:49 10° NE
Cosmos 1656 Rocket 4.2 21:57:01 10° SW 22:02:33 56° WNW 22:08:02 10° NNE
ATLAS 2AS CENTAUR R/B 3.6 21:54:53 10° SW 22:02:44 61° NW 22:10:37 10° NNE
STARLINK-1245 4.5 21:59:30 10° NW 22:03:30 45° NNE 22:04:51 32° ENE
Cosmos 1455 Rocket 4.2 22:01:03 10° NNW 22:05:02 37° W 22:06:35 27° SW
EO 1 Del DPAF 4.4 22:02:17 10° NNE 22:04:56 29° ENE 22:04:56 29° ENE
Cosmos 1758 3.5 22:02:03 10° NNW 22:06:07 66° W 22:06:46 55° SW
STARLINK-1373 4.1 22:02:20 10° WSW 22:06:20 59° NW 22:10:20 10° NE
STARLINK-1209 4.3 22:04:57 10° WNW 22:07:33 34° WSW 22:07:33 34° WSW
STARLINK-1233 4.3 22:04:29 10° NW 22:08:31 48° NNE 22:09:38 37° ENE
STARLINK-1390 4.2 22:06:55 10° WSW 22:10:53 55° NNW 22:14:52 10° NE
ATLAS CENTAUR R/B 3.1 22:07:15 10° WSW 22:11:13 33° NW 22:15:00 10° NNE
BREEZE-M R/B 4.3 22:00:12 10° SW 22:12:18 71° SE 22:17:38 10° ENE
STARLINK-1204 4.2 22:09:26 10° NW 22:13:30 52° NNE 22:14:24 42° ENE
Meteor 1-16 Rocket 4.2 22:09:04 10° N 22:14:26 61° ENE 22:15:41 48° SE
Cosmos 968 Rocket 4.3 22:11:39 10° NW 22:16:25 40° WSW 22:17:57 32° SW
STARLINK-1365 4.4 22:12:45 10° WSW 22:16:44 50° NNW 22:20:43 10° NE
STARLINK-1238 4.1 22:14:24 10° NW 22:18:29 56° NNE 22:19:12 48° ENE
Cosmos 2369 Rocket 4.4 22:15:03 10° WSW 22:19:30 23° NW 22:23:56 10° N
S3M 3.9 22:13:42 10° N 22:19:56 87° W 22:22:10 43° S
Meteor 2-8 Rocket 4.4 22:16:25 10° N 22:22:35 80° W 22:24:43 43° S
STARLINK-1201 3.9 22:19:23 10° NW 22:23:30 61° NE 22:23:59 55° ENE
Cosmos 1867 4.0 22:18:27 10° NW 22:23:42 49° WSW 22:24:50 42° SSW
Cosmos 2315 Rocket 4.4 22:18:44 10° N 22:24:46 51° ENE 22:26:32 40° SE
Cosmos 2227 Rocket 4.1 22:21:04 10° N 22:25:13 20° NE 22:28:23 13° E
STARLINK-1206 3.7 22:24:19 10° NW 22:28:27 66° NE 22:28:44 63° ENE
Cosmos 1553 Rocket 4.5 22:24:15 10° NNW 22:30:16 52° W 22:32:46 33° SSW
Milstar 3 Cent rocket 4.5 22:22:16 10° WSW 22:31:40 47° S 22:51:17 10° ESE
STARLINK-1205 3.7 22:29:17 10° NW 22:33:26 72° NE 22:33:31 72° NE
Cosmos 2084 4.2 22:32:51 26° WSW 22:35:06 52° NW 22:39:29 10° NNE
Cosmos 1908 3.8 22:33:20 10° N 22:36:36 49° NE 22:36:36 49° NE
STARLINK-1218 3.6 22:34:16 10° NW 22:38:19 77° NNE 22:38:19 77° NNE
Cosmos 1777 Rocket 4.0 22:33:43 10° NNW 22:38:58 71° ENE 22:39:51 59° SE
KORONAS-FOTON 4.2 22:42:07 60° NNE 22:42:07 60° NNE 22:45:23 10° N
Terra 3.2 22:41:36 25° WSW 22:42:45 27° W 22:46:48 10° NW
In-Cosmos 22 4.3 22:41:25 44° SW 22:42:56 63° WNW 22:48:12 10° N
STARLINK-1254 3.7 22:39:15 10° NW 22:43:06 75° NNW 22:43:06 75° NNW
Meteor 2-5 Rocket 3.7 22:46:11 55° SE 22:46:56 60° E 22:52:30 10° NNE
STARLINK-1231 3.8 22:44:14 10° NW 22:47:53 68° WNW 22:47:53 68° WNW
Thor Agena Rocket 3.6 22:43:10 10° N 22:48:27 76° WNW 22:49:40 53° SW
Cosmos 1726 3.2 22:46:04 10° NNW 22:49:12 39° WNW 22:49:12 39° WNW
Cosmos 1300 4.5 22:46:34 10° NNE 22:49:12 23° ENE 22:49:12 23° ENE
Cosmos 2266 Rocket 4.1 22:47:46 41° SSW 22:49:52 66° W 22:55:53 10° N
Cosmos 2292 Rocket 4.2 22:51:50 36° NW 22:51:50 36° NW 22:54:01 10° N
Cosmos 1674 3.1 22:53:26 58° NNW 22:53:26 58° NNW 22:56:42 10° N
STARLINK-1232 4.0 22:49:14 10° NW 22:52:41 60° WNW 22:52:41 60° WNW
CENTAUR R/B 4.2 22:48:01 10° NW 22:55:16 34° WSW 22:58:21 27° SW
STARLINK-1208 4.2 22:54:13 10° NW 22:57:28 52° WNW 22:57:28 52° WNW
STARLINK-1271 4.4 22:59:12 10° WNW 23:02:14 45° WNW 23:02:14 45° WNW
ATLAS 3B R/B 3.0 22:57:13 10° NW 23:03:49 52° WSW 23:05:21 44° SSW
Meteor 2-21 4.4 23:04:49 56° SSE 23:06:00 70° E 23:12:10 10° NNE
SeaSat 1 2.3 23:02:15 10° NNE 23:07:14 86° ESE 23:07:34 77° S
Cosmos 1340 Rocket 4.4 23:04:26 10° NNW 23:07:46 27° W 23:07:46 27° W
Cosmos 1606 Rocket 3.7 23:04:20 10° NNW 23:08:26 68° WNW 23:08:26 68° WNW
Cosmos 1980 Rocket 4.2 23:10:05 14° E 23:10:05 14° E 23:12:31 10° ENE
Cosmos 2058 Rocket 3.4 23:05:39 10° N 23:09:53 59° ENE 23:09:53 59° ENE
Cosmos 1244 Rocket 4.4 23:12:34 59° SSE 23:13:45 76° E 23:19:55 10° N
ALOS 2 2.6 23:14:35 74° NE 23:14:35 74° NE 23:18:47 10° N
Cosmos 1626 3.1 23:20:51 46° N 23:20:51 46° N 23:23:34 10° N
RESURS DK-1 4.5 23:18:29 18° W 23:20:10 23° NW 23:23:30 10° N
STARLINK-1269 4.4 23:21:27 10° NW 23:25:28 47° NNE 23:25:46 46° NE
Meteor 1-24 Rocket 3.5 23:27:06 69° SW 23:27:44 81° W 23:33:17 10° N
Cosmos 1656 3.5 23:27:54 70° SSE 23:28:21 74° ESE 23:33:58 10° NNE
Cosmos 921 Rocket 3.8 23:29:32 44° WNW 23:29:41 44° WNW 23:33:53 10° N
Lacrosse 4 Rocket 2.9 23:26:37 10° N 23:30:21 28° NE 23:31:03 27° ENE
STARLINK-1200 4.3 23:26:24 10° NW 23:30:27 50° NNE 23:30:32 50° NE
Cosmos 2228 4.0 23:27:22 10° NNW 23:30:53 37° WNW 23:30:53 37° WNW
CZ-4C R/B 2.0 23:31:35 67° ESE 23:31:35 67° ESE 23:37:06 10° NE
Cosmos 2297 Rocket 2.2 23:26:22 10° NNW 23:32:01 71° ENE 23:32:59 58° ESE
SL-08 R/B 4.5 23:31:05 59° SSE 23:32:18 75° E 23:38:38 10° N
Meteor 2-14 Rocket 4.4 23:31:51 59° SSW 23:33:04 79° W 23:39:15 10° N
Cosmos 1898 Rocket 4.3 23:29:00 10° N 23:34:04 43° ENE 23:35:13 38° E
STARLINK-1192 4.2 23:31:23 10° NW 23:35:20 54° NNE 23:35:20 54° NNE
Cosmos 2219 3.0 23:30:16 10° NNW 23:35:57 88° WSW 23:36:34 72° SSE
Meteor 2-21 Rocket 4.4 23:36:06 61° SSW 23:37:16 87° W 23:43:31 10° N
STARLINK-1244 4.2 23:36:20 10° NW 23:40:06 57° N 23:40:06 57° N
Cosmos 192 4.3 23:43:01 74° W 23:43:13 75° WNW 23:48:12 10° NNE
Cosmos 990 Rocket 4.4 23:38:38 10° N 23:43:48 54° ENE 23:44:35 49° E
ATLAS CENTAUR R/B 3.3 23:42:10 10° NNW 23:43:35 28° N 23:43:35 28° N
STARLINK-1138 4.2 23:41:17 10° NW 23:44:52 57° N 23:44:52 57° N
Cosmos 2082 4.4 23:41:00 10° NNW 23:46:26 46° ENE 23:48:10 36° ESE
Helios 1A 3.2 23:47:33 66° NNW 23:47:33 66° NNW 23:51:11 10° NNW
Okean 1-7 Rocket 4.3 23:47:20 45° WNW 23:47:20 45° WNW 23:51:43 10° N
STARLINK-1143 4.2 23:46:16 10° NW 23:49:40 55° NNW 23:49:40 55° NNW
EO 1 Delta rocket 3.8 23:48:40 10° N 23:53:44 79° WNW 23:53:51 79° W
STARLINK-1241 4.3 23:51:15 10° NW 23:54:27 51° NW 23:54:27 51° NW
